QZS-1 (MICHIBIKI-1)

Last updated on Jan. 26, 2020, 4:40 a.m. UTC

1 37158U 10045A   20025.65703147 -.00000208  00000-0  00000+0 0  9996
2 37158  41.5073 145.6343 0758057 270.5127  82.2319  1.00256335 34308
UTC
Height (km)
Latitude
Longitude
Inclination
Orbital Period
UTC large
Height (km)
Speed (km/s)
/
Latitude / Longitude
Inclination (degrees)
Orbital Period (minutes)
Azimuth
Elevation
Range (km)
Doppler Factor
iOS Compass Heading
iOS Angle

Next 30 passes for location: Hong Kong

Rise time Rise Azimuth (degrees) Set time Set Azimuth (degrees) Duration Max altitude (degrees)

No matching passes for this satellites